Monroe, NC

1:36 PM EDT on October 18, 2017 (GMT -0400)
Monroe

Weather History for KEQY - August, 2014

Change the Weather History Date:

Sunday, August 10, 2014

  Actual Average (KCLT) Record (KCLT)
Temperature  
Mean Temperature 70 °F -  
Max Temperature 73 °F 88 °F 104 °F (2007)
Min Temperature 66 °F 69 °F 56 °F (1879)
Cooling Degree Days 4    
Growing Degree Days 20 (Base 50)    
Moisture  
Dew Point 67 °F    
Average Humidity 93    
Maximum Humidity 97    
Minimum Humidity 87    
Precipitation  
Precipitation 0.00 in - - ()
Sea Level Pressure  
Sea Level Pressure 30.07 in    
Wind  
Wind Speed 8 mph (NE)    
Max Wind Speed 12 mph    
Max Gust Speed -    
Visibility 5 miles    
Events Fog    
Averages and records for this station are not official NWS values.
T = Trace of Precipitation, MM = Missing Value Source: NWS Daily Summary

Daily Weather History Graph

Daily Weather History Graph

Search for Another Location

Airport or City:

Trip Planner

Search our weather history database for the weather conditions in past years. The results will help you decide how hot, cold, wet, or windy it might be!

Date:

Astronomy

Aug. 10, 2014 Rise Set
Actual Time 6:38 AM EDT 8:16 PM EDT
Civil Twilight 6:11 AM EDT 8:43 PM EDT
Nautical Twilight 5:38 AM EDT 9:16 PM EDT
Astronomical Twilight 5:04 AM EDT 9:50 PM EDT
Moon 8:05 PM EDT (8/10) 6:27 AM EDT (8/10)
Length of Visible Light 14h 32m
Length of Day
13h 37m
Full, 100% of the Moon is Illuminated
Aug 10
Full
Aug 10
Full
Aug 17
Last Quarter
Aug 25
New
Sep 2
First Quarter

Hourly Weather History & Observations

Time (EDT) Temp. Dew Point Humidity Pressure Visibility Wind Dir Wind Speed Gust Speed Precip Events Conditions
12:53 AM 66.9 °F 66.0 °F 97% 30.08 in 0.8 mi NE 8.1 mph - N/A   Mist
1:27 AM 66.9 °F 66.0 °F 97% 30.07 in 1.0 mi NE 9.2 mph - N/A   Overcast
1:53 AM 66.9 °F 64.9 °F 93% 30.06 in 1.5 mi NE 8.1 mph - N/A   Overcast
2:19 AM 66.9 °F 64.9 °F 93% 30.06 in 2.0 mi NE 10.4 mph - N/A   Overcast
2:43 AM 66.9 °F 64.9 °F 93% 30.05 in 2.0 mi NE 9.2 mph - N/A   Overcast
2:53 AM 66.9 °F 64.9 °F 93% 30.05 in 3.0 mi NE 11.5 mph - N/A   Overcast
3:53 AM 66.9 °F 64.9 °F 93% 30.04 in 3.0 mi NE 5.8 mph - N/A   Overcast
4:27 AM 66.9 °F 64.9 °F 93% 30.04 in 2.5 mi NE 8.1 mph - N/A   Overcast
4:38 AM 66.9 °F 66.0 °F 97% 30.05 in 3.0 mi NE 6.9 mph - N/A   Overcast
4:53 AM 66.9 °F 66.0 °F 97% 30.05 in 2.5 mi NE 9.2 mph - N/A   Overcast
5:04 AM 66.9 °F 66.0 °F 97% 30.04 in 3.0 mi NE 8.1 mph - N/A   Overcast
5:53 AM 66.9 °F 66.0 °F 97% 30.04 in 4.0 mi ENE 9.2 mph - N/A   Overcast
6:03 AM 66.9 °F 66.0 °F 97% 30.03 in 4.0 mi ENE 5.8 mph - N/A   Overcast
6:53 AM 66.9 °F 66.0 °F 97% 30.07 in 6.0 mi Variable 4.6 mph - N/A   Overcast
8:03 AM 68.0 °F 66.0 °F 93% 30.08 in 1.8 mi ENE 6.9 mph - N/A   Overcast
8:29 AM 68.0 °F 66.0 °F 93% 30.09 in 0.8 mi NE 6.9 mph - N/A   Overcast
8:53 AM 68.0 °F 66.0 °F 93% 30.10 in 0.5 mi NE 6.9 mph - N/A Fog Fog
9:40 AM 68.0 °F 66.0 °F 93% 30.08 in 1.0 mi NE 6.9 mph - N/A   Overcast
10:53 AM 68.0 °F 66.9 °F 96% 30.11 in 3.0 mi NE 8.1 mph - N/A   Overcast
11:17 AM 69.1 °F 66.9 °F 93% 30.10 in 3.0 mi NE 8.1 mph - N/A   Overcast
11:31 AM 69.1 °F 66.9 °F 93% 30.10 in 3.0 mi ENE 8.1 mph - N/A   Overcast
11:53 AM 70.0 °F 66.9 °F 90% 30.11 in 6.0 mi East 4.6 mph - N/A   Overcast
12:53 PM 70.0 °F 68.0 °F 93% 30.11 in 5.0 mi NE 6.9 mph - N/A   Overcast
1:43 PM 72.0 °F 68.0 °F 87% 30.08 in 10.0 mi ENE 5.8 mph - N/A   Overcast
1:53 PM 72.0 °F 68.0 °F 87% 30.09 in 10.0 mi NE 8.1 mph - N/A   Overcast
2:53 PM 72.0 °F 68.0 °F 87% 30.08 in 9.0 mi NE 6.9 mph - N/A   Overcast
4:53 PM 72.0 °F 69.1 °F 91% 30.06 in 9.0 mi NE 8.1 mph - N/A   Overcast
5:53 PM 73.0 °F 69.1 °F 87% 30.06 in 10.0 mi NE 6.9 mph - N/A   Overcast
6:53 PM 72.0 °F 69.1 °F 91% 30.06 in 9.0 mi ENE 4.6 mph - N/A   Overcast
8:53 PM 72.0 °F 69.1 °F 91% 30.05 in 8.0 mi NE 5.8 mph - N/A   Overcast
9:00 PM 72.0 °F 69.1 °F 91% 30.04 in 8.0 mi NE 5.8 mph - N/A   Overcast
9:17 PM 72.0 °F 69.1 °F 91% 30.04 in 8.0 mi ENE 4.6 mph - N/A   Overcast
9:53 PM 72.0 °F 69.1 °F 91% 30.07 in 9.0 mi NE 5.8 mph - N/A   Overcast
10:17 PM 72.0 °F 69.1 °F 91% 30.06 in 9.0 mi NE 4.6 mph - N/A   Overcast
10:25 PM 72.0 °F 69.1 °F 91% 30.06 in 9.0 mi NE 4.6 mph - N/A   Overcast
10:53 PM 72.0 °F 69.1 °F 91% 30.07 in 9.0 mi NE 4.6 mph - N/A   Overcast
11:02 PM 72.0 °F 69.1 °F 91% 30.06 in 9.0 mi NE 4.6 mph - N/A   Overcast
11:39 PM 72.0 °F 70.0 °F 93% 30.06 in 9.0 mi NE 4.6 mph - N/A   Overcast